Year,Month,Day,Hour,Minute,Value (Times are PST for temperature in C)
2014,02,11,00,00,2.30
2014,02,11,00,01,2.30
2014,02,11,00,02,2.30
2014,02,11,00,03,2.20
2014,02,11,00,04,2.20
2014,02,11,00,05,2.20
2014,02,11,00,06,2.10
2014,02,11,00,07,2.10
2014,02,11,00,08,2.10
2014,02,11,00,09,2.10
2014,02,11,00,10,2.00
2014,02,11,00,11,2.00
2014,02,11,00,12,2.00
2014,02,11,00,13,2.00
2014,02,11,00,14,1.90
2014,02,11,00,15,1.90
2014,02,11,00,16,1.90
2014,02,11,00,17,1.90
2014,02,11,00,18,1.80
2014,02,11,00,19,1.80
2014,02,11,00,20,1.80
2014,02,11,00,21,1.80
2014,02,11,00,22,1.80
2014,02,11,00,23,1.70
2014,02,11,00,24,1.70
2014,02,11,00,25,1.70
2014,02,11,00,26,1.70
2014,02,11,00,27,1.70
2014,02,11,00,28,1.60
2014,02,11,00,29,1.60
2014,02,11,00,30,1.60
2014,02,11,00,31,1.60
2014,02,11,00,32,1.60
2014,02,11,00,33,1.50
2014,02,11,00,34,1.50
2014,02,11,00,35,1.50
2014,02,11,00,36,1.40
2014,02,11,00,37,1.40
2014,02,11,00,38,1.40
2014,02,11,00,39,1.40
2014,02,11,00,40,1.30
2014,02,11,00,41,1.30
2014,02,11,00,42,1.30
2014,02,11,00,43,1.30
2014,02,11,00,44,1.30
2014,02,11,00,45,1.30
2014,02,11,00,46,1.20
2014,02,11,00,47,1.20
2014,02,11,00,48,1.20
2014,02,11,00,49,1.20
2014,02,11,00,50,1.20
2014,02,11,00,51,1.20
2014,02,11,00,52,1.20
2014,02,11,00,53,1.20
2014,02,11,00,54,1.30
2014,02,11,00,55,1.30
2014,02,11,00,56,1.30
2014,02,11,00,57,1.40
2014,02,11,00,58,1.50
2014,02,11,00,59,1.60
2014,02,11,01,00,1.60
2014,02,11,01,01,1.70
2014,02,11,01,02,1.80
2014,02,11,01,03,1.80
2014,02,11,01,04,1.80
2014,02,11,01,05,1.90
2014,02,11,01,06,1.90
2014,02,11,01,07,1.90
2014,02,11,01,08,1.80
2014,02,11,01,09,1.80
2014,02,11,01,10,1.70
2014,02,11,01,11,1.70
2014,02,11,01,12,1.60
2014,02,11,01,13,1.60
2014,02,11,01,14,1.50
2014,02,11,01,15,1.40
2014,02,11,01,16,1.40
2014,02,11,01,17,1.40
2014,02,11,01,18,1.40
2014,02,11,01,19,1.40
2014,02,11,01,20,1.40
2014,02,11,01,21,1.40
2014,02,11,01,22,1.40
2014,02,11,01,23,1.30
2014,02,11,01,24,1.30
2014,02,11,01,25,1.30
2014,02,11,01,26,1.30
2014,02,11,01,27,1.30
2014,02,11,01,28,1.30
2014,02,11,01,29,1.30
2014,02,11,01,30,1.30
2014,02,11,01,31,1.30
2014,02,11,01,32,1.30
2014,02,11,01,33,1.30
2014,02,11,01,34,1.30
2014,02,11,01,35,1.30
2014,02,11,01,36,1.40
2014,02,11,01,37,1.40
2014,02,11,01,38,1.40
2014,02,11,01,39,1.40
2014,02,11,01,40,1.40
2014,02,11,01,41,1.40
2014,02,11,01,42,1.40
2014,02,11,01,43,1.40
2014,02,11,01,44,1.50
2014,02,11,01,45,1.50
2014,02,11,01,46,1.50
2014,02,11,01,47,1.50
2014,02,11,01,48,1.50
2014,02,11,01,49,1.50
2014,02,11,01,50,1.50
2014,02,11,01,51,1.50
2014,02,11,01,52,1.50
2014,02,11,01,53,1.40
2014,02,11,01,54,1.40
2014,02,11,01,55,1.40
2014,02,11,01,56,1.30
2014,02,11,01,57,1.30
2014,02,11,01,58,1.30
2014,02,11,01,59,1.30
2014,02,11,02,00,1.20
2014,02,11,02,01,1.20
2014,02,11,02,02,1.20
2014,02,11,02,03,1.20
2014,02,11,02,04,1.10
2014,02,11,02,05,1.10
2014,02,11,02,06,1.10
2014,02,11,02,07,1.00
2014,02,11,02,08,1.00
2014,02,11,02,09,1.00
2014,02,11,02,10,0.90
2014,02,11,02,11,0.90
2014,02,11,02,12,0.90
2014,02,11,02,13,0.90
2014,02,11,02,14,0.90
2014,02,11,02,15,0.90
2014,02,11,02,16,0.90
2014,02,11,02,17,0.90
2014,02,11,02,18,0.90
2014,02,11,02,19,0.90
2014,02,11,02,20,0.90
2014,02,11,02,21,1.00
2014,02,11,02,22,1.00
2014,02,11,02,23,1.00
2014,02,11,02,24,1.00
2014,02,11,02,25,1.00
2014,02,11,02,26,1.00
2014,02,11,02,27,1.00
2014,02,11,02,28,1.10
2014,02,11,02,29,1.10
2014,02,11,02,30,1.10
2014,02,11,02,31,1.10
2014,02,11,02,32,1.10
2014,02,11,02,33,1.10
2014,02,11,02,34,1.00
2014,02,11,02,35,1.00
2014,02,11,02,36,1.00
2014,02,11,02,37,1.00
2014,02,11,02,38,1.00
2014,02,11,02,39,1.00
2014,02,11,02,40,1.00
2014,02,11,02,41,0.90
2014,02,11,02,42,0.90
2014,02,11,02,43,0.90
2014,02,11,02,44,0.90
2014,02,11,02,45,0.90
2014,02,11,02,46,0.90
2014,02,11,02,47,0.90
2014,02,11,02,48,0.90
2014,02,11,02,49,1.00
2014,02,11,02,50,1.00
2014,02,11,02,51,1.00
2014,02,11,02,52,1.00
2014,02,11,02,53,1.00
2014,02,11,02,54,1.00
2014,02,11,02,55,0.90
2014,02,11,02,56,0.90
2014,02,11,02,57,0.90
2014,02,11,02,58,0.80
2014,02,11,02,59,0.80
2014,02,11,03,00,0.80
2014,02,11,03,01,0.80
2014,02,11,03,02,0.70
2014,02,11,03,03,0.70
2014,02,11,03,04,0.70
2014,02,11,03,05,0.70
2014,02,11,03,06,0.70
2014,02,11,03,07,0.70
2014,02,11,03,08,0.60
2014,02,11,03,09,0.60
2014,02,11,03,10,0.60
2014,02,11,03,11,0.60
2014,02,11,03,12,0.50
2014,02,11,03,13,0.50
2014,02,11,03,14,0.50
2014,02,11,03,15,0.50
2014,02,11,03,16,0.40
2014,02,11,03,17,0.40
2014,02,11,03,18,0.40
2014,02,11,03,19,0.40
2014,02,11,03,20,0.40
2014,02,11,03,21,0.40
2014,02,11,03,22,0.40
2014,02,11,03,23,0.40
2014,02,11,03,24,0.40
2014,02,11,03,25,0.30
2014,02,11,03,26,0.30
2014,02,11,03,27,0.30
2014,02,11,03,28,0.30
2014,02,11,03,29,0.30
2014,02,11,03,30,0.30
2014,02,11,03,31,0.30
2014,02,11,03,32,0.20
2014,02,11,03,33,0.20
2014,02,11,03,34,0.20
2014,02,11,03,35,0.20
2014,02,11,03,36,0.20
2014,02,11,03,37,0.10
2014,02,11,03,38,0.10
2014,02,11,03,39,0.10
2014,02,11,03,40,0.10
2014,02,11,03,41,0.10
2014,02,11,03,42,0.10
2014,02,11,03,43,0.00
2014,02,11,03,44,0.00
2014,02,11,03,45,-0.10
2014,02,11,03,46,-0.10
2014,02,11,03,47,-0.10
2014,02,11,03,48,-0.10
2014,02,11,03,49,-0.20
2014,02,11,03,50,-0.20
2014,02,11,03,51,-0.20
2014,02,11,03,52,-0.20
2014,02,11,03,53,-0.30
2014,02,11,03,54,-0.30
2014,02,11,03,55,-0.30
2014,02,11,03,56,-0.30
2014,02,11,03,57,-0.40
2014,02,11,03,58,-0.40
2014,02,11,03,59,-0.40
2014,02,11,04,00,-0.40
2014,02,11,04,01,-0.40
2014,02,11,04,02,-0.40
2014,02,11,04,03,-0.50
2014,02,11,04,04,-0.50
2014,02,11,04,05,-0.50
2014,02,11,04,06,-0.50
2014,02,11,04,07,-0.50
2014,02,11,04,08,-0.50
2014,02,11,04,09,-0.50
2014,02,11,04,10,-0.50
2014,02,11,04,11,-0.50
2014,02,11,04,12,-0.50
2014,02,11,04,13,-0.50
2014,02,11,04,14,-0.50
2014,02,11,04,15,-0.50
2014,02,11,04,16,-0.60
2014,02,11,04,17,-0.60
2014,02,11,04,18,-0.60
2014,02,11,04,19,-0.60
2014,02,11,04,20,-0.60
2014,02,11,04,21,-0.60
2014,02,11,04,22,-0.60
2014,02,11,04,23,-0.60
2014,02,11,04,24,-0.60
2014,02,11,04,25,-0.60
2014,02,11,04,26,-0.60
2014,02,11,04,27,-0.60
2014,02,11,04,28,-0.60
2014,02,11,04,29,-0.60
2014,02,11,04,30,-0.50
2014,02,11,04,31,-0.50
2014,02,11,04,32,-0.50
2014,02,11,04,33,-0.50
2014,02,11,04,34,-0.50
2014,02,11,04,35,-0.50
2014,02,11,04,36,-0.50
2014,02,11,04,37,-0.50
2014,02,11,04,38,-0.50
2014,02,11,04,39,-0.60
2014,02,11,04,40,-0.60
2014,02,11,04,41,-0.60
2014,02,11,04,42,-0.60
2014,02,11,04,43,-0.60
2014,02,11,04,44,-0.60
2014,02,11,04,45,-0.60
2014,02,11,04,46,-0.60
2014,02,11,04,47,-0.60
2014,02,11,04,48,-0.60
2014,02,11,04,49,-0.60
2014,02,11,04,50,-0.60
2014,02,11,04,51,-0.60
2014,02,11,04,52,-0.60
2014,02,11,04,53,-0.60
2014,02,11,04,54,-0.60
2014,02,11,04,55,-0.60
2014,02,11,04,56,-0.60
2014,02,11,04,57,-0.60
2014,02,11,04,58,-0.60
2014,02,11,04,59,-0.60
2014,02,11,05,00,-0.60
2014,02,11,05,01,-0.50
2014,02,11,05,02,-0.50
2014,02,11,05,03,-0.50
2014,02,11,05,04,-0.50
2014,02,11,05,05,-0.50
2014,02,11,05,06,-0.50
2014,02,11,05,07,-0.50
2014,02,11,05,08,-0.60
2014,02,11,05,09,-0.60
2014,02,11,05,10,-0.60
2014,02,11,05,11,-0.60
2014,02,11,05,12,-0.60
2014,02,11,05,13,-0.60
2014,02,11,05,14,-0.50
2014,02,11,05,15,-0.50
2014,02,11,05,16,-0.50
2014,02,11,05,17,-0.50
2014,02,11,05,18,-0.50
2014,02,11,05,19,-0.50
2014,02,11,05,20,-0.50
2014,02,11,05,21,-0.50
2014,02,11,05,22,-0.50
2014,02,11,05,23,-0.60
2014,02,11,05,24,-0.60
2014,02,11,05,25,-0.60
2014,02,11,05,26,-0.60
2014,02,11,05,27,-0.60
2014,02,11,05,28,-0.60
2014,02,11,05,29,-0.60
2014,02,11,05,30,-0.60
2014,02,11,05,31,-0.60
2014,02,11,05,32,-0.60
2014,02,11,05,33,-0.60
2014,02,11,05,34,-0.60
2014,02,11,05,35,-0.60
2014,02,11,05,36,-0.70
2014,02,11,05,37,-0.70
2014,02,11,05,38,-0.70
2014,02,11,05,39,-0.70
2014,02,11,05,40,-0.70
2014,02,11,05,41,-0.70
2014,02,11,05,42,-0.70
2014,02,11,05,43,-0.70
2014,02,11,05,44,-0.70
2014,02,11,05,45,-0.70
2014,02,11,05,46,-0.70
2014,02,11,05,47,-0.80
2014,02,11,05,48,-0.80
2014,02,11,05,49,-0.80
2014,02,11,05,50,-0.80
2014,02,11,05,51,-0.80
2014,02,11,05,52,-0.80
2014,02,11,05,53,-0.80
2014,02,11,05,54,-0.80
2014,02,11,05,55,-0.80
2014,02,11,05,56,-0.80
2014,02,11,05,57,-0.80
2014,02,11,05,58,-0.80
2014,02,11,05,59,-0.80
2014,02,11,06,00,-0.80
2014,02,11,06,01,-0.80
2014,02,11,06,02,-0.80
2014,02,11,06,03,-0.80
2014,02,11,06,04,-0.80
2014,02,11,06,05,-0.80
2014,02,11,06,06,-0.80
2014,02,11,06,07,-0.90
2014,02,11,06,08,-0.90
2014,02,11,06,09,-0.90
2014,02,11,06,10,-0.90
2014,02,11,06,11,-0.90
2014,02,11,06,12,-0.90
2014,02,11,06,13,-1.00
2014,02,11,06,14,-1.00
2014,02,11,06,15,-1.00
2014,02,11,06,16,-1.00
2014,02,11,06,17,-1.00
2014,02,11,06,18,-1.00
2014,02,11,06,19,-1.00
2014,02,11,06,20,-1.00
2014,02,11,06,21,-1.00
2014,02,11,06,22,-1.00
2014,02,11,06,23,-1.00
2014,02,11,06,24,-1.00
2014,02,11,06,25,-1.00
2014,02,11,06,26,-1.00
2014,02,11,06,27,-1.00
2014,02,11,06,28,-1.10
2014,02,11,06,29,-1.10
2014,02,11,06,30,-1.10
2014,02,11,06,31,-1.10
2014,02,11,06,32,-1.10
2014,02,11,06,33,-1.10
2014,02,11,06,34,-1.10
2014,02,11,06,35,-1.10
2014,02,11,06,36,-1.10
2014,02,11,06,37,-1.10
2014,02,11,06,38,-1.00
2014,02,11,06,39,-1.00
2014,02,11,06,40,-1.00
2014,02,11,06,41,-0.90
2014,02,11,06,42,-0.90
2014,02,11,06,43,-0.90
2014,02,11,06,44,-0.90
2014,02,11,06,45,-0.90
2014,02,11,06,46,-0.90
2014,02,11,06,47,-0.90
2014,02,11,06,48,-0.90
2014,02,11,06,49,-1.00
2014,02,11,06,50,-1.00
2014,02,11,06,51,-1.00
2014,02,11,06,52,-1.00
2014,02,11,06,53,-1.00
2014,02,11,06,54,-1.00
2014,02,11,06,55,-1.00
2014,02,11,06,56,-1.00
2014,02,11,06,57,-1.00
2014,02,11,06,58,-1.00
2014,02,11,06,59,-1.00
2014,02,11,07,00,-1.00
2014,02,11,07,01,-1.00
2014,02,11,07,02,-1.10
2014,02,11,07,03,-1.10
2014,02,11,07,04,-1.10
2014,02,11,07,05,-1.10
2014,02,11,07,06,-1.10
2014,02,11,07,07,-1.10
2014,02,11,07,08,-1.10
2014,02,11,07,09,-1.10
2014,02,11,07,10,-1.10
2014,02,11,07,11,-1.10
2014,02,11,07,12,-1.10
2014,02,11,07,13,-1.10
2014,02,11,07,14,-1.10
2014,02,11,07,15,-1.10
2014,02,11,07,16,-1.10
2014,02,11,07,17,-1.10
2014,02,11,07,18,-1.10
2014,02,11,07,19,-1.10
2014,02,11,07,20,-1.10
2014,02,11,07,21,-1.10
2014,02,11,07,22,-1.10
2014,02,11,07,23,-1.10
2014,02,11,07,24,-1.10
2014,02,11,07,25,-1.10
2014,02,11,07,26,-1.10
2014,02,11,07,27,-1.10
2014,02,11,07,28,-1.10
2014,02,11,07,29,-1.10
2014,02,11,07,30,-1.10
2014,02,11,07,31,-1.10
2014,02,11,07,32,-1.10
2014,02,11,07,33,-1.10
2014,02,11,07,34,-1.10
2014,02,11,07,35,-1.10
2014,02,11,07,36,-1.10
2014,02,11,07,37,-1.10
2014,02,11,07,38,-1.10
2014,02,11,07,39,-1.10
2014,02,11,07,40,-1.10
2014,02,11,07,41,-1.10
2014,02,11,07,42,-1.10
2014,02,11,07,43,-1.10
2014,02,11,07,44,-1.10
2014,02,11,07,45,-1.10
2014,02,11,07,46,-1.10
2014,02,11,07,47,-1.10
2014,02,11,07,48,-1.10
2014,02,11,07,49,-1.10
2014,02,11,07,50,-1.10
2014,02,11,07,51,-1.10
2014,02,11,07,52,-1.10
2014,02,11,07,53,-1.10
2014,02,11,07,54,-1.10
2014,02,11,07,55,-1.10
2014,02,11,07,56,-1.10
2014,02,11,07,57,-1.00
2014,02,11,07,58,-1.00
2014,02,11,07,59,-1.00
2014,02,11,08,00,-1.00
2014,02,11,08,01,-1.00
2014,02,11,08,02,-1.00
2014,02,11,08,03,-1.00
2014,02,11,08,04,-1.00
2014,02,11,08,05,-1.00
2014,02,11,08,06,-1.00
2014,02,11,08,07,-1.00
2014,02,11,08,08,-1.00
2014,02,11,08,09,-1.00
2014,02,11,08,10,-1.10
2014,02,11,08,11,-1.10
2014,02,11,08,12,-1.10
2014,02,11,08,13,-1.10
2014,02,11,08,14,-1.10
2014,02,11,08,15,-1.10
2014,02,11,08,16,-1.00
2014,02,11,08,17,-1.00
2014,02,11,08,18,-1.10
2014,02,11,08,19,-1.10
2014,02,11,08,20,-1.10
2014,02,11,08,21,-1.00
2014,02,11,08,22,-1.10
2014,02,11,08,23,-1.10
2014,02,11,08,24,-1.00
2014,02,11,08,25,-1.00
2014,02,11,08,26,-1.00
2014,02,11,08,27,-1.00
2014,02,11,08,28,-1.00
2014,02,11,08,29,-0.90
2014,02,11,08,30,-0.90
2014,02,11,08,31,-0.90
2014,02,11,08,32,-0.90
2014,02,11,08,33,-0.80
2014,02,11,08,34,-0.80
2014,02,11,08,35,-0.80
2014,02,11,08,36,-0.80
2014,02,11,08,37,-0.80
2014,02,11,08,38,-0.80
2014,02,11,08,39,-0.80
2014,02,11,08,40,-0.80
2014,02,11,08,41,-0.70
2014,02,11,08,42,-0.70
2014,02,11,08,43,-0.70
2014,02,11,08,44,-0.70
2014,02,11,08,45,-0.70
2014,02,11,08,46,-0.70
2014,02,11,08,47,-0.70
2014,02,11,08,48,-0.70
2014,02,11,08,49,-0.70
2014,02,11,08,50,-0.70
2014,02,11,08,51,-0.60
2014,02,11,08,52,-0.60
2014,02,11,08,53,-0.60
2014,02,11,08,54,-0.60
2014,02,11,08,55,-0.50
2014,02,11,08,56,-0.50
2014,02,11,08,57,-0.40
2014,02,11,08,58,-0.40
2014,02,11,08,59,-0.30
2014,02,11,09,00,-0.30
2014,02,11,09,01,-0.30
2014,02,11,09,02,-0.20
2014,02,11,09,03,-0.20
2014,02,11,09,04,-0.10
2014,02,11,09,05,-0.10
2014,02,11,09,06,0.00
2014,02,11,09,07,0.00
2014,02,11,09,08,0.00
2014,02,11,09,09,0.10
2014,02,11,09,10,0.10
2014,02,11,09,11,0.10
2014,02,11,09,12,0.20
2014,02,11,09,13,0.20
2014,02,11,09,14,0.20
2014,02,11,09,15,0.20
2014,02,11,09,16,0.20
2014,02,11,09,17,0.30
2014,02,11,09,18,0.30
2014,02,11,09,19,0.30
2014,02,11,09,20,0.30
2014,02,11,09,21,0.30
2014,02,11,09,22,0.30
2014,02,11,09,23,0.30
2014,02,11,09,24,0.40
2014,02,11,09,25,0.40
2014,02,11,09,26,0.50
2014,02,11,09,27,0.50
2014,02,11,09,28,0.50
2014,02,11,09,29,0.60
2014,02,11,09,30,0.60
2014,02,11,09,31,0.60
2014,02,11,09,32,0.60
2014,02,11,09,33,0.60
2014,02,11,09,34,0.60
2014,02,11,09,35,0.60
2014,02,11,09,36,0.60
2014,02,11,09,37,0.70
2014,02,11,09,38,0.70
2014,02,11,09,39,0.70
2014,02,11,09,40,0.70
2014,02,11,09,41,0.70
2014,02,11,09,42,0.80
2014,02,11,09,43,0.80
2014,02,11,09,44,0.80
2014,02,11,09,45,0.80
2014,02,11,09,46,0.80
2014,02,11,09,47,0.80
2014,02,11,09,48,0.90
2014,02,11,09,49,0.90
2014,02,11,09,50,0.90
2014,02,11,09,51,0.90
2014,02,11,09,52,1.00
2014,02,11,09,53,1.00
2014,02,11,09,54,1.10
2014,02,11,09,55,1.10
2014,02,11,09,56,1.10
2014,02,11,09,57,1.20
2014,02,11,09,58,1.20
2014,02,11,09,59,1.20
2014,02,11,10,00,1.30
2014,02,11,10,01,1.30
2014,02,11,10,02,1.40
2014,02,11,10,03,1.40
2014,02,11,10,04,1.40
2014,02,11,10,05,1.50
2014,02,11,10,06,1.50
2014,02,11,10,07,1.60
2014,02,11,10,08,1.60
2014,02,11,10,09,1.70
2014,02,11,10,10,1.70
2014,02,11,10,11,1.80
2014,02,11,10,12,1.80
2014,02,11,10,13,1.90
2014,02,11,10,14,1.90
2014,02,11,10,15,1.90
2014,02,11,10,16,2.00
2014,02,11,10,17,2.10
2014,02,11,10,18,2.10
2014,02,11,10,19,2.10
2014,02,11,10,20,2.20
2014,02,11,10,21,2.20
2014,02,11,10,22,2.20
2014,02,11,10,23,2.30
2014,02,11,10,24,2.30
2014,02,11,10,25,2.40
2014,02,11,10,26,2.40
2014,02,11,10,27,2.40
2014,02,11,10,28,2.50
2014,02,11,10,29,2.50
2014,02,11,10,30,2.60
2014,02,11,10,31,2.70
2014,02,11,10,32,2.80
2014,02,11,10,33,2.80
2014,02,11,10,34,2.90
2014,02,11,10,35,3.00
2014,02,11,10,36,3.00
2014,02,11,10,37,3.10
2014,02,11,10,38,3.20
2014,02,11,10,39,3.20
2014,02,11,10,40,3.30
2014,02,11,10,41,3.30
2014,02,11,10,42,3.40
2014,02,11,10,43,3.40
2014,02,11,10,44,3.50
2014,02,11,10,45,3.50
2014,02,11,10,46,3.60
2014,02,11,10,47,3.60
2014,02,11,10,48,3.60
2014,02,11,10,49,3.70
2014,02,11,10,50,3.70
2014,02,11,10,51,3.70
2014,02,11,10,52,3.70
2014,02,11,10,53,3.70
2014,02,11,10,54,3.80
2014,02,11,10,55,3.80
2014,02,11,10,56,3.80
2014,02,11,10,57,3.80
2014,02,11,10,58,3.80
2014,02,11,10,59,3.90
2014,02,11,11,00,3.90
2014,02,11,11,01,3.90
2014,02,11,11,02,3.90
2014,02,11,11,03,4.00
2014,02,11,11,04,4.00
2014,02,11,11,05,4.00
2014,02,11,11,06,4.10
2014,02,11,11,07,4.10
2014,02,11,11,08,4.10
2014,02,11,11,09,4.20
2014,02,11,11,10,4.20
2014,02,11,11,11,4.20
2014,02,11,11,12,4.20
2014,02,11,11,13,4.30
2014,02,11,11,14,4.30
2014,02,11,11,15,4.30
2014,02,11,11,16,4.30
2014,02,11,11,17,4.30
2014,02,11,11,18,4.40
2014,02,11,11,19,4.40
2014,02,11,11,20,4.40
2014,02,11,11,21,4.40
2014,02,11,11,22,4.40
2014,02,11,11,23,4.40
2014,02,11,11,24,4.50
2014,02,11,11,25,4.50
2014,02,11,11,26,4.50
2014,02,11,11,27,4.50
2014,02,11,11,28,4.40
2014,02,11,11,29,4.40
2014,02,11,11,30,4.40
2014,02,11,11,31,4.40
2014,02,11,11,32,4.40
2014,02,11,11,33,4.40
2014,02,11,11,34,4.40
2014,02,11,11,35,4.50
2014,02,11,11,36,4.50
2014,02,11,11,37,4.50
2014,02,11,11,38,4.50
2014,02,11,11,39,4.50
2014,02,11,11,40,4.50
2014,02,11,11,41,4.60
2014,02,11,11,42,4.60
2014,02,11,11,43,4.60
2014,02,11,11,44,4.60
2014,02,11,11,45,4.70
2014,02,11,11,46,4.70
2014,02,11,11,47,4.70
2014,02,11,11,48,4.80
2014,02,11,11,49,4.80
2014,02,11,11,50,4.80
2014,02,11,11,51,4.80
2014,02,11,11,52,4.80
2014,02,11,11,53,4.80
2014,02,11,11,54,4.80
2014,02,11,11,55,4.90
2014,02,11,11,56,4.90
2014,02,11,11,57,4.90
2014,02,11,11,58,4.90
2014,02,11,11,59,4.90
2014,02,11,12,00,4.90
2014,02,11,12,01,4.90
2014,02,11,12,02,4.90
2014,02,11,12,03,5.00
2014,02,11,12,04,5.00
2014,02,11,12,05,5.00
2014,02,11,12,06,5.00
2014,02,11,12,07,5.10
2014,02,11,12,08,5.10
2014,02,11,12,09,5.10
2014,02,11,12,10,5.10
2014,02,11,12,11,5.10
2014,02,11,12,12,5.10
2014,02,11,12,13,5.10
2014,02,11,12,14,5.10
2014,02,11,12,15,5.10
2014,02,11,12,16,5.20
2014,02,11,12,17,5.20
2014,02,11,12,18,5.20
2014,02,11,12,19,5.20
2014,02,11,12,20,5.20
2014,02,11,12,21,5.20
2014,02,11,12,22,5.20
2014,02,11,12,23,5.30
2014,02,11,12,24,5.30
2014,02,11,12,25,5.30
2014,02,11,12,26,5.30
2014,02,11,12,27,5.30
2014,02,11,12,28,5.30
2014,02,11,12,29,5.30
2014,02,11,12,30,5.30
2014,02,11,12,31,5.30
2014,02,11,12,32,5.30
2014,02,11,12,33,5.30
2014,02,11,12,34,5.30
2014,02,11,12,35,5.40
2014,02,11,12,36,5.40
2014,02,11,12,37,5.40
2014,02,11,12,38,5.40
2014,02,11,12,39,5.40
2014,02,11,12,40,5.40
2014,02,11,12,41,5.40
2014,02,11,12,42,5.40
2014,02,11,12,43,5.50
2014,02,11,12,44,5.50
2014,02,11,12,45,5.50
2014,02,11,12,46,5.50
2014,02,11,12,47,5.50
2014,02,11,12,48,5.50
2014,02,11,12,49,5.60
2014,02,11,12,50,5.60
2014,02,11,12,51,5.60
2014,02,11,12,52,5.60
2014,02,11,12,53,5.60
2014,02,11,12,54,5.60
2014,02,11,12,55,5.60
2014,02,11,12,56,5.60
2014,02,11,12,57,5.70
2014,02,11,12,58,5.70
2014,02,11,12,59,5.70
2014,02,11,13,00,5.70
2014,02,11,13,01,5.70
2014,02,11,13,02,5.70
2014,02,11,13,03,5.70
2014,02,11,13,04,5.70
2014,02,11,13,05,5.70
2014,02,11,13,06,5.70
2014,02,11,13,07,5.70
2014,02,11,13,08,5.70
2014,02,11,13,09,5.70
2014,02,11,13,10,5.70
2014,02,11,13,11,5.80
2014,02,11,13,12,5.80
2014,02,11,13,13,5.80
2014,02,11,13,14,5.80
2014,02,11,13,15,5.80
2014,02,11,13,16,5.80
2014,02,11,13,17,5.80
2014,02,11,13,18,5.80
2014,02,11,13,19,5.80
2014,02,11,13,20,5.80
2014,02,11,13,21,5.80
2014,02,11,13,22,5.80
2014,02,11,13,23,5.90
2014,02,11,13,24,5.90
2014,02,11,13,25,5.90
2014,02,11,13,26,5.90
2014,02,11,13,27,6.00
2014,02,11,13,28,6.00
2014,02,11,13,29,6.00
2014,02,11,13,30,6.00
2014,02,11,13,31,6.00
2014,02,11,13,32,6.10
2014,02,11,13,33,6.10
2014,02,11,13,34,6.10
2014,02,11,13,35,6.10
2014,02,11,13,36,6.10
2014,02,11,13,37,6.20
2014,02,11,13,38,6.20
2014,02,11,13,39,6.20
2014,02,11,13,40,6.20
2014,02,11,13,41,6.20
2014,02,11,13,42,6.20
2014,02,11,13,43,6.30
2014,02,11,13,44,6.30
2014,02,11,13,45,6.30
2014,02,11,13,46,6.30
2014,02,11,13,47,6.30
2014,02,11,13,48,6.30
2014,02,11,13,49,6.30
2014,02,11,13,50,6.40
2014,02,11,13,51,6.40
2014,02,11,13,52,6.40
2014,02,11,13,53,6.40
2014,02,11,13,54,6.40
2014,02,11,13,55,6.40
2014,02,11,13,56,6.50
2014,02,11,13,57,6.50
2014,02,11,13,58,6.50
2014,02,11,13,59,6.50
2014,02,11,14,00,6.50
2014,02,11,14,01,6.60
2014,02,11,14,02,6.60
2014,02,11,14,03,6.60
2014,02,11,14,04,6.60
2014,02,11,14,05,6.60
2014,02,11,14,06,6.60
2014,02,11,14,07,6.60
2014,02,11,14,08,6.60
2014,02,11,14,09,6.70
2014,02,11,14,10,6.70
2014,02,11,14,11,6.70
2014,02,11,14,12,6.70
2014,02,11,14,13,6.70
2014,02,11,14,14,6.70
2014,02,11,14,15,6.70
2014,02,11,14,16,6.70
2014,02,11,14,17,6.70
2014,02,11,14,18,6.70
2014,02,11,14,19,6.70
2014,02,11,14,20,6.70
2014,02,11,14,21,6.70
2014,02,11,14,22,6.70
2014,02,11,14,23,6.70
2014,02,11,14,24,6.70
2014,02,11,14,25,6.70
2014,02,11,14,26,6.70
2014,02,11,14,27,6.70
2014,02,11,14,28,6.70
2014,02,11,14,29,6.70
2014,02,11,14,30,6.70
2014,02,11,14,31,6.70
2014,02,11,14,32,6.70
2014,02,11,14,33,6.70
2014,02,11,14,34,6.70
2014,02,11,14,35,6.70
2014,02,11,14,36,6.70
2014,02,11,14,37,6.70
2014,02,11,14,38,6.70
2014,02,11,14,39,6.70
2014,02,11,14,40,6.70
2014,02,11,14,41,6.70
2014,02,11,14,42,6.70
2014,02,11,14,43,6.70
2014,02,11,14,44,6.70
2014,02,11,14,45,6.70
2014,02,11,14,46,6.70
2014,02,11,14,47,6.70
2014,02,11,14,48,6.70
2014,02,11,14,49,6.70
2014,02,11,14,50,6.70
2014,02,11,14,51,6.70
2014,02,11,14,52,6.70
2014,02,11,14,53,6.70
2014,02,11,14,54,6.70
2014,02,11,14,55,6.70
2014,02,11,14,56,6.70
2014,02,11,14,57,6.70
2014,02,11,14,58,6.70
2014,02,11,14,59,6.70
2014,02,11,15,00,6.70
2014,02,11,15,01,6.70
2014,02,11,15,02,6.70
2014,02,11,15,03,6.70
2014,02,11,15,04,6.70
2014,02,11,15,05,6.70
2014,02,11,15,06,6.70
2014,02,11,15,07,6.70
2014,02,11,15,08,6.60
2014,02,11,15,09,6.60
2014,02,11,15,10,6.60
2014,02,11,15,11,6.60
2014,02,11,15,12,6.60
2014,02,11,15,13,6.60
2014,02,11,15,14,6.60
2014,02,11,15,15,6.60
2014,02,11,15,16,6.60
2014,02,11,15,17,6.60
2014,02,11,15,18,6.60
2014,02,11,15,19,6.50
2014,02,11,15,20,6.50
2014,02,11,15,21,6.50
2014,02,11,15,22,6.50
2014,02,11,15,23,6.50
2014,02,11,15,24,6.40
2014,02,11,15,25,6.40
2014,02,11,15,26,6.40
2014,02,11,15,27,6.40
2014,02,11,15,28,6.40
2014,02,11,15,29,6.40
2014,02,11,15,30,6.40
2014,02,11,15,31,6.40
2014,02,11,15,32,6.40
2014,02,11,15,33,6.40
2014,02,11,15,34,6.40
2014,02,11,15,35,6.30
2014,02,11,15,36,6.30
2014,02,11,15,37,6.30
2014,02,11,15,38,6.30
2014,02,11,15,39,6.30
2014,02,11,15,40,6.30
2014,02,11,15,41,6.30
2014,02,11,15,42,6.30
2014,02,11,15,43,6.30
2014,02,11,15,44,6.30
2014,02,11,15,45,6.30
2014,02,11,15,46,6.30
2014,02,11,15,47,6.20
2014,02,11,15,48,6.30
2014,02,11,15,49,6.20
2014,02,11,15,50,6.20
2014,02,11,15,51,6.20
2014,02,11,15,52,6.20
2014,02,11,15,53,6.20
2014,02,11,15,54,6.20
2014,02,11,15,55,6.20
2014,02,11,15,56,6.20
2014,02,11,15,57,6.20
2014,02,11,15,58,6.20
2014,02,11,15,59,6.20
2014,02,11,16,00,6.20
2014,02,11,16,01,6.20
2014,02,11,16,02,6.20
2014,02,11,16,03,6.20
2014,02,11,16,04,6.20
2014,02,11,16,05,6.10
2014,02,11,16,06,6.10
2014,02,11,16,07,6.10
2014,02,11,16,08,6.10
2014,02,11,16,09,6.10
2014,02,11,16,10,6.10
2014,02,11,16,11,6.10
2014,02,11,16,12,6.10
2014,02,11,16,13,6.10
2014,02,11,16,14,6.10
2014,02,11,16,15,6.10
2014,02,11,16,16,6.10
2014,02,11,16,17,6.10
2014,02,11,16,18,6.00
2014,02,11,16,19,6.00
2014,02,11,16,20,6.00
2014,02,11,16,21,6.00
2014,02,11,16,22,6.00
2014,02,11,16,23,5.90
2014,02,11,16,24,5.90
2014,02,11,16,25,5.90
2014,02,11,16,26,5.90
2014,02,11,16,27,5.90
2014,02,11,16,28,5.90
2014,02,11,16,29,5.90
2014,02,11,16,30,5.90
2014,02,11,16,31,5.90
2014,02,11,16,32,5.90
2014,02,11,16,33,5.90
2014,02,11,16,34,5.90
2014,02,11,16,35,5.90
2014,02,11,16,36,5.90
2014,02,11,16,37,5.80
2014,02,11,16,38,5.80
2014,02,11,16,39,5.80
2014,02,11,16,40,5.80
2014,02,11,16,41,5.80
2014,02,11,16,42,5.80
2014,02,11,16,43,5.80
2014,02,11,16,44,5.80
2014,02,11,16,45,5.80
2014,02,11,16,46,5.80
2014,02,11,16,47,5.80
2014,02,11,16,48,5.80
2014,02,11,16,49,5.80
2014,02,11,16,50,5.80
2014,02,11,16,51,5.80
2014,02,11,16,52,5.80
2014,02,11,16,53,5.80
2014,02,11,16,54,5.80
2014,02,11,16,55,5.80
2014,02,11,16,56,5.80
2014,02,11,16,57,5.80
2014,02,11,16,58,5.80
2014,02,11,16,59,5.80
2014,02,11,17,00,5.80
2014,02,11,17,01,5.70
2014,02,11,17,02,5.70
2014,02,11,17,03,5.70
2014,02,11,17,04,5.70
2014,02,11,17,05,5.70
2014,02,11,17,06,5.70
2014,02,11,17,07,5.70
2014,02,11,17,08,5.70
2014,02,11,17,09,5.70
2014,02,11,17,10,5.70
2014,02,11,17,11,5.70
2014,02,11,17,12,5.70
2014,02,11,17,13,5.70
2014,02,11,17,14,5.70
2014,02,11,17,15,5.70
2014,02,11,17,16,5.70
2014,02,11,17,17,5.70
2014,02,11,17,18,5.70
2014,02,11,17,19,5.70
2014,02,11,17,20,5.70
2014,02,11,17,21,5.70
2014,02,11,17,22,5.70
2014,02,11,17,23,5.70
2014,02,11,17,24,5.70
2014,02,11,17,25,5.70
2014,02,11,17,26,5.70
2014,02,11,17,27,5.60
2014,02,11,17,28,5.60
2014,02,11,17,29,5.60
2014,02,11,17,30,5.60
2014,02,11,17,31,5.60
2014,02,11,17,32,5.60
2014,02,11,17,33,5.60
2014,02,11,17,34,5.60
2014,02,11,17,35,5.60
2014,02,11,17,36,5.60
2014,02,11,17,37,5.60
2014,02,11,17,38,5.60
2014,02,11,17,39,5.60
2014,02,11,17,40,5.60
2014,02,11,17,41,5.60
2014,02,11,17,42,5.60
2014,02,11,17,43,5.60
2014,02,11,17,44,5.60
2014,02,11,17,45,5.60
2014,02,11,17,46,5.60
2014,02,11,17,47,5.60
2014,02,11,17,48,5.60
2014,02,11,17,49,5.60
2014,02,11,17,50,5.50
2014,02,11,17,51,5.50
2014,02,11,17,52,5.50